Regional Weather Roundup
Issued by NWS

Home | Current Version | Previous Version | Graphics & Text | Print | Product List | Glossary On
Versions: 1 2 3 4 5 6 7 8 9 10 11 12 13 14 15 16 17 18 19 20 21 22 23 24 25 26 27 28 29 30 31 32 33 34 35 36 37 38 39 40 41 42 43 44 45 46 47 48 49 50
000
ASUS43 KLOT 030410
RWRIL

ILLINOIS REGIONAL WEATHER ROUNDUP
NATIONAL WEATHER SERVICE CHICAGO/ROMEOVILLE IL
1000 PM CST MON MAR 02 2015

NOTE: "FAIR" INDICATES FEW OR NO CLOUDS BELOW 12,000 FEET WITH NO
SIGNIFICANT WEATHER AND/OR OBSTRUCTIONS TO VISIBILITY.

* THESE STATIONS ARE NOT UNDER NWS QUALITY CONTROL. THEY ALSO MAY NOT
  REPORT WEATHER SUCH AS PRECIPITATION OR FOG.

ILZ001-002-007-009-015-016-024-030500-
NORTHWEST ILLINOIS

CITY           SKY/WX    TMP DP  RH WIND       PRES   REMARKS
MOLINE         CLOUDY    27  18  69 SE10      30.23F WCI  17
STERLING*      CLOUDY    25  19  80 SE6       30.26F WCI  18
SAVANNA*       CLOUDY    26  19  76 SE9       30.25F WCI  17
$$

ILZ003-004-008-010-011-017-018-030500-
NORTH CENTRAL ILLINOIS

CITY           SKY/WX    TMP DP  RH WIND       PRES   REMARKS
ROCKFORD       CLOUDY    24  15  68 S8        30.29F WCI  15
FREEPORT*      CLOUDY    24  17  74 S10       30.28S WCI  13
ROCHELLE*      CLOUDY    23  19  83 S8        30.28S WCI  14
DE KALB*       CLOUDY    22  17  79 S7        30.28F WCI  14
PERU*          CLOUDY    26  20  77 SE8       30.29F WCI  17
$$

ILZ005-006-012>014-019>023-030500-
NORTHEAST ILLINOIS

CITY           SKY/WX    TMP DP  RH WIND       PRES   REMARKS
CHICAGO-OHARE  CLOUDY    25  15  66 S8        30.29F WCI  16
CHICAGO-MIDWAY CLOUDY    28  14  55 S9        30.31F WCI  19
AURORA         CLOUDY    25  15  66 S6        30.30F WCI  18
LANSING*       CLOUDY    26  17  68 S6        30.32F WCI  19
JOLIET*        CLOUDY    25  16  68 S5        30.31F WCI  19
WAUKEGAN       CLOUDY    26  17  68 S9        30.29F WCI  17
DUPAGE AIRPORT CLOUDY    24  16  71 S6        30.28F WCI  17
KANKAKEE*      CLOUDY    24  19  79 E5        30.31F WCI  18
WHEELING       CLOUDY    27  14  58 S9        30.32F WCI  18
MORRIS*        CLOUDY    24  20  82 SE5       30.30S WCI  19
ROMEOVILLE*    CLOUDY    25  17  70 S7        30.30S WCI  17
NORTHERLY ISL    N/A     27  14  58 S7          N/A  WCI  20
$$

LMZ740>746-030500-
SOUTHERN LAKE MICHIGAN

STATION/POSITION SKY/WX   TEMP    WIND        PRES    VSBY  WAVE
                          AIR SEA DIR/SP/G                  HT/PER
                          (F)     (DEG/KT/KT) (MB)    (MI)  (FT/S)
WAUKEGAN HARBOR            27     220/ 10/ 28   N/A
HARRISON CRIB              26     190/ 13/ 14   N/A
BURNHAM HARBOR             27     180/  5/ 11   N/A
CALUMET HARBOR             26     160/  5/  8 1025.2F
MICHIGAN CITY              26     160/  9/ 12   N/A
$$

ILZ025>027-034>036-040-047-049-050-058-095>099-030500-
WEST-CENTRAL ILLINOIS

CITY           SKY/WX    TMP DP  RH WIND       PRES   REMARKS
QUINCY         CLOUDY    29  19  66 SE13      30.21F WCI  19
GALESBURG*     FAIR      26  20  80 SE5       30.24F WCI  20
MACOMB*        FAIR      27  22  84 SE9       30.26F WCI  17
JACKSONVILLE*  MOCLDY    29  21  73 SE7       30.25S WCI  22
PITTSFIELD*    CLOUDY    30  21  69 SE10      30.24F WCI  21
$$

ILZ028>032-037-038-041>044-048-051>054-059>061-030500-
CENTRAL ILLINOIS

CITY           SKY/WX    TMP DP  RH WIND       PRES   REMARKS
PONTIAC        CLOUDY    24  21  87 E8        30.30S WCI  16
BLOOMINGTON    FAIR      24  17  74 SE9       30.27F WCI  14
DECATUR        FAIR      24  17  74 SE9       30.28S WCI  14
PEORIA         FAIR      28  17  63 SE5       30.26F WCI  23
LACON*         CLOUDY    25  18  76 SE6       30.26F WCI  18
LINCOLN*       FAIR      26  20  79 SE6       30.29F WCI  19
SPRINGFIELD    FAIR      28  19  69 SE13      30.25F WCI  17
TAYLORVILLE    FAIR      27  19  74 SE9       30.25F WCI  17
$$

ILZ033-039-045-046-055>057-062-063-030500-
EAST-CENTRAL ILLINOIS

CITY           SKY/WX    TMP DP  RH WIND       PRES   REMARKS
CHAMPAIGN      FAIR      22  16  78 E8        30.28F WCI  12
DANVILLE*      FAIR      24  15  71 E8        30.26F WCI  14
RANTOUL*       FAIR      24  18  77 E7        30.28F WCI  16
MATTOON        FAIR      24  16  71 CALM      30.28F
PARIS*         FAIR      25  18  74 E5        30.29F WCI  19
$$

ILZ079-100>102-030500-
SOUTHWEST ILLINOIS

CITY           SKY/WX    TMP DP  RH WIND       PRES   REMARKS
ALTON          CLOUDY    29  17  59 SE9       30.27S WCI  21
BELLEVILLE     CLOUDY    30  20  64 SE9       30.26F WCI  22
CAHOKIA*       CLOUDY    32  20  61 SE7       30.27F WCI  26
SPARTA*        CLOUDY    31  21  68 E3        30.29R
$$

ILZ064>066-069>071-074>076-080>082-084>086-088>090-092>094-030500-
SOUTH-CENTRAL ILLINOIS

CITY           SKY/WX    TMP DP  RH WIND       PRES   REMARKS
CARBONDALE     CLOUDY    32  23  69 E7        30.26F WCI  26
CAIRO*         CLOUDY    37  26  62 NE6       30.27F WCI  33
EFFINGHAM*     FAIR      25  15  64 CALM      30.29F
MARION         CLOUDY    34  23  64 E6        30.27F WCI  29
MT. VERNON     CLOUDY    30  18  59 E7        30.27F WCI  23
CENTRALIA*     CLOUDY    30  18  60 E5        30.27F WCI  25
SALEM*         CLOUDY    31  20  65 E3        30.27F
METROPOLIS*    CLOUDY    36  25  65 E3        30.25F
$$

ILZ067-068-072-073-078-083-087-091-030500-
SOUTHEAST ILLINOIS

CITY           SKY/WX    TMP DP  RH WIND       PRES   REMARKS
LAWRENCEVILLE  FAIR      26  18  71 E7        30.29F WCI  18
FLORA*         FAIR      26  19  73 E3        30.28F
FAIRFIELD*     MOCLDY    29  20  67 CALM      30.28S
HARRISBURG*    CLOUDY    32  24  73 E5        30.29F WCI  27
ROBINSON*      FAIR      26  20  77 E5        30.31F WCI  21
CARMI*         FAIR      31  27  83 E5        30.27F WCI  26
$$

ABBREVIATIONS USED IN REMARKS
   TC - TEMPERATURE IN CELSIUS
  WCI - WIND CHILL INDEX
   HX - HEAT INDEX
  VSB - VISIBILITY
$$



USA.gov is the U.S. government's official web portal to all federal, state and local government web resources and services.